| time (UTC) | temp F | wind direction | speed MPH | gust MPH | rain 1hr in | rain 24hr in | rain mn in | humidity % | barometer mb |
| 20260905025525 | 62 | 0.0 | 0.0 | 0.00 | 0.01 | 0.01 | 43 | 1012.2 | |
| 20260905025025 | 62 | 0.0 | 0.0 | 0.00 | 0.01 | 0.01 | 43 | 1012.1 | |
| 20260905024545 | 62 | 0.0 | 0.0 | 0.00 | 0.01 | 0.01 | 43 | 1012.0 | |
| 20260905024025 | 62 | 0.0 | 0.0 | 0.00 | 0.01 | 0.01 | 42 | 1011.9 | |
| 20260905023525 | 62 | 0.0 | 0.0 | 0.00 | 0.01 | 0.01 | 42 | 1011.9 | |
| 20260905023025 | 62 | 0.0 | 0.0 | 0.00 | 0.01 | 0.01 | 42 | 1012.0 | |
| 20260905022525 | 62 | 0.0 | 0.0 | 0.00 | 0.01 | 0.01 | 41 | 1012.0 | |
| 20260905022025 | 62 | 0.0 | 0.0 | 0.00 | 0.01 | 0.01 | 41 | 1012.0 | |
| 20260905021525 | 63 | 0.0 | 0.0 | 0.00 | 0.01 | 0.01 | 41 | 1012.0 | |
| 20260905021025 | 63 | 0.0 | 0.0 | 0.00 | 0.01 | 0.01 | 40 | 1012.1 | |
| 20260905020525 | 63 | 0.0 | 0.0 | 0.00 | 0.01 | 0.01 | 40 | 1012.2 | |
| 20260905020045 | 63 | 0.0 | 0.0 | 0.00 | 0.01 | 0.01 | 40 | 1012.3 | |
| 20260905015525 | 63 | 0.0 | 0.0 | 0.00 | 0.01 | 0.01 | 40 | 1012.0 | |
| 20260905015025 | 63 | 0.0 | 0.0 | 0.00 | 0.01 | 0.01 | 39 | 1012.3 | |
| 20260905014530 | 63 | 0.0 | 0.0 | 0.00 | 0.01 | 0.01 | 39 | 1012.1 | |
| 20260905014025 | 64 | 0.0 | 0.0 | 0.00 | 0.01 | 0.01 | 39 | 1012.1 | |
| 20260905013525 | 64 | 0.0 | 0.0 | 0.00 | 0.01 | 0.01 | 38 | 1012.4 | |
| 20260905013025 | 64 | 0.0 | 0.0 | 0.00 | 0.01 | 0.01 | 38 | 1012.4 | |
| 20260905012545 | 64 | 0.0 | 0.0 | 0.00 | 0.01 | 0.01 | 37 | 1012.3 | |
| 20260905012025 | 64 | 0.0 | 0.0 | 0.00 | 0.01 | 0.01 | 37 | 1012.4 | |
| 20260905011525 | 64 | 0.0 | 0.0 | 0.00 | 0.01 | 0.01 | 37 | 1012.3 | |
| 20260905011025 | 64 | 0.0 | 0.0 | 0.00 | 0.01 | 0.01 | 37 | 1012.2 | |
| 20260905010525 | 64 | 0.0 | 0.0 | 0.00 | 0.01 | 0.01 | 36 | 1012.2 | |
| 20260905010025 | 64 | 0.0 | 0.0 | 0.00 | 0.01 | 0.01 | 36 | 1012.3 | |
| 20260905005525 | 64 | 0.0 | 0.0 | 0.00 | 0.01 | 0.01 | 35 | 1012.4 | |
| 20260905005025 | 65 | 0.0 | 0.0 | 0.00 | 0.01 | 0.01 | 35 | 1012.5 | |
| 20260905004525 | 65 | 0.0 | 0.0 | 0.00 | 0.01 | 0.01 | 34 | 1012.3 | |
| 20260905004025 | 65 | 0.0 | 0.0 | 0.00 | 0.01 | 0.01 | 35 | 1012.2 | |
| 20260905003525 | 65 | 0.0 | 0.0 | 0.00 | 0.01 | 0.01 | 35 | 1012.2 | |
| 20260905003025 | 65 | 0.0 | 0.0 | 0.00 | 0.01 | 0.01 | 37 | 1012.1 | |
| 20260905002525 | 65 | 0.0 | 0.0 | 0.00 | 0.01 | 0.01 | 38 | 1012.0 | |
| 20260905002025 | 65 | 0.0 | 0.0 | 0.00 | 0.01 | 0.01 | 40 | 1012.0 | |
| 20260905001525 | 65 | 0.0 | 0.0 | 0.00 | 0.01 | 0.01 | 44 | 1011.8 | |
| 20260905001025 | 66 | 0.0 | 0.0 | 0.00 | 0.01 | 0.01 | 47 | 1011.8 | |
| 20260905000552 | 66 | 0.0 | 0.0 | 0.00 | 0.01 | 0.01 | 48 | 1011.8 | |
| 20260905000027 | 66 | 0.0 | 0.0 | 0.00 | 0.01 | 0.01 | 49 | 1011.7 | |
| 20260904235527 | 66 | 0.0 | 0.0 | 0.00 | 0.01 | 0.01 | 50 | 1011.7 | |
| 20260904235027 | 67 | 0.0 | 0.0 | 0.00 | 0.01 | 0.01 | 52 | 1011.7 | |
| 20260904234527 | 67 | 0.0 | 0.0 | 0.00 | 0.01 | 0.01 | 53 | 1011.7 | |
| 20260904234047 | 67 | 0.0 | 0.0 | 0.00 | 0.01 | 0.01 | 53 | 1011.5 | |
| 20260904233527 | 68 | 0.0 | 0.0 | 0.00 | 0.01 | 0.01 | 53 | 1011.6 | |
| 20260904233027 | 68 | 0.0 | 0.0 | 0.00 | 0.01 | 0.01 | 53 | 1011.7 | |
| 20260904232527 | 68 | 0.0 | 0.0 | 0.00 | 0.01 | 0.01 | 54 | 1011.6 | |
| 20260904232025 | 69 | 0.0 | 0.0 | 0.00 | 0.01 | 0.01 | 54 | 1011.7 | |
| 20260904231547 | 69 | 0.0 | 0.0 | 0.00 | 0.01 | 0.01 | 57 | 1011.7 | |
| 20260904231027 | 69 | 0.0 | 0.0 | 0.00 | 0.01 | 0.01 | 57 | 1011.6 | |
| 20260904230527 | 70 | 0.0 | 0.0 | 0.00 | 0.01 | 0.01 | 57 | 1011.6 | |
| 20260904230047 | 70 | 0.0 | 0.0 | 0.00 | 0.01 | 0.01 | 57 | 1011.6 | |
| 20260904225527 | 70 | 0.0 | 0.0 | 0.00 | 0.01 | 0.01 | 58 | 1011.5 | |
| 20260904225027 | 70 | 0.0 | 0.0 | 0.00 | 0.01 | 0.01 | 59 | 1011.6 | |
| 20260904224527 | 71 | 0.0 | 0.0 | 0.00 | 0.01 | 0.01 | 59 | 1011.5 | |
| 20260904224027 | 71 | 0.0 | 0.0 | 0.00 | 0.01 | 0.01 | 59 | 1011.5 | |
| 20260904223527 | 71 | 0.0 | 0.0 | 0.00 | 0.01 | 0.01 | 60 | 1011.3 | |
| 20260904223027 | 71 | 0.0 | 0.0 | 0.00 | 0.01 | 0.01 | 59 | 1011.4 | |
| 20260904222527 | 72 | 0.0 | 0.0 | 0.00 | 0.01 | 0.01 | 59 | 1011.4 | |
| 20260904222047 | 72 | 0.0 | 0.0 | 0.00 | 0.01 | 0.01 | 58 | 1011.4 | |
| 20260904221525 | 72 | 0.0 | 0.0 | 0.00 | 0.01 | 0.01 | 58 | 1011.3 | |
| 20260904221027 | 72 | 0.0 | 0.0 | 0.00 | 0.01 | 0.01 | 56 | 1011.3 | |
| 20260904220547 | 73 | 0.0 | 0.0 | 0.00 | 0.01 | 0.01 | 55 | 1011.3 | |
| 20260904220027 | 73 | 0.0 | 0.0 | 0.00 | 0.01 | 0.01 | 57 | 1011.3 | |
| 20260904215527 | 73 | 0.0 | 0.0 | 0.00 | 0.01 | 0.01 | 57 | 1011.3 | |
| 20260904215027 | 73 | 0.0 | 0.0 | 0.00 | 0.01 | 0.01 | 57 | 1011.4 | |
| 20260904214527 | 73 | 0.0 | 0.0 | 0.00 | 0.01 | 0.01 | 57 | 1011.1 | |
| 20260904214027 | 74 | 0.0 | 0.0 | 0.00 | 0.01 | 0.01 | 57 | 1011.2 | |
| 20260904213527 | 74 | 0.0 | 0.0 | 0.00 | 0.01 | 0.01 | 56 | 1011.3 | |
| 20260904213027 | 75 | 0.0 | 0.0 | 0.00 | 0.01 | 0.01 | 55 | 1011.5 | |
| 20260904212526 | 75 | 0.0 | 0.0 | 0.00 | 0.02 | 0.01 | 53 | 1011.4 | |
| 20260904212027 | 76 | 0 | 1.0 | 6.0 | 0.00 | 0.02 | 0.01 | 52 | 1011.5 |
| 20260904211527 | 77 | 0.0 | 3.0 | 0.00 | 0.03 | 0.01 | 50 | 1011.5 | |
| 20260904211027 | 77 | 0.0 | 1.0 | 0.00 | 0.03 | 0.01 | 48 | 1011.5 | |
| 20260904210527 | 77 | 0.0 | 2.0 | 0.00 | 0.03 | 0.01 | 46 | 1011.6 | |
| 20260904210027 | 77 | 16 | 2.0 | 5.0 | 0.00 | 0.03 | 0.01 | 46 | 1011.5 |
| 20260904205527 | 77 | 11 | 1.0 | 6.0 | 0.00 | 0.03 | 0.01 | 48 | 1011.4 |
| 20260904205027 | 77 | 25 | 1.0 | 5.0 | 0.00 | 0.03 | 0.01 | 47 | 1011.4 |
| 20260904204547 | 77 | 345 | 1.0 | 4.0 | 0.00 | 0.03 | 0.01 | 48 | 1011.4 |
| 20260904204027 | 77 | 345 | 2.0 | 8.0 | 0.00 | 0.03 | 0.01 | 48 | 1011.2 |
| 20260904203526 | 77 | 3 | 2.0 | 6.0 | 0.00 | 0.03 | 0.01 | 47 | 1011.4 |
| 20260904203026 | 78 | 5 | 2.0 | 5.0 | 0.00 | 0.03 | 0.01 | 46 | 1011.4 |
| 20260904202527 | 78 | 19 | 3.0 | 10.0 | 0.00 | 0.03 | 0.01 | 46 | 1011.4 |
| 20260904202027 | 78 | 5 | 2.0 | 6.0 | 0.00 | 0.03 | 0.01 | 47 | 1011.5 |
| 20260904201547 | 78 | 54 | 1.0 | 6.0 | 0.00 | 0.03 | 0.01 | 51 | 1011.5 |
| 20260904201026 | 79 | 357 | 1.0 | 3.0 | 0.00 | 0.03 | 0.01 | 46 | 1011.6 |
| 20260904200606 | 79 | 335 | 2.0 | 8.0 | 0.00 | 0.03 | 0.01 | 46 | 1011.6 |
| 20260904200027 | 80 | 2 | 2.0 | 10.0 | 0.00 | 0.03 | 0.01 | 44 | 1011.7 |
| 20260904195547 | 80 | 336 | 1.0 | 5.0 | 0.00 | 0.03 | 0.01 | 46 | 1011.7 |
| 20260904195027 | 80 | 83 | 1.0 | 6.0 | 0.00 | 0.03 | 0.01 | 44 | 1011.6 |
| 20260904194527 | 80 | 338 | 1.0 | 5.0 | 0.00 | 0.03 | 0.01 | 44 | 1011.7 |
| 20260904194026 | 80 | 347 | 3.0 | 9.0 | 0.00 | 0.03 | 0.01 | 43 | 1011.6 |
| 20260904193526 | 80 | 320 | 1.0 | 5.0 | 0.00 | 0.03 | 0.01 | 42 | 1011.5 |
| 20260904193027 | 80 | 350 | 2.0 | 5.0 | 0.00 | 0.03 | 0.01 | 45 | 1011.5 |
| 20260904192526 | 80 | 345 | 3.0 | 9.0 | 0.00 | 0.03 | 0.01 | 41 | 1011.5 |
| 20260904192027 | 81 | 293 | 2.0 | 3.0 | 0.00 | 0.03 | 0.01 | 43 | 1011.5 |
| 20260904191527 | 81 | 2 | 2.0 | 9.0 | 0.00 | 0.03 | 0.01 | 43 | 1011.3 |
| 20260904191026 | 81 | 340 | 1.0 | 4.0 | 0.00 | 0.03 | 0.01 | 46 | 1011.4 |
| 20260904190527 | 81 | 305 | 1.0 | 4.0 | 0.00 | 0.03 | 0.01 | 44 | 1011.4 |
| 20260904190026 | 81 | 315 | 2.0 | 5.0 | 0.00 | 0.03 | 0.01 | 43 | 1011.5 |
| 20260904185526 | 80 | 7 | 3.0 | 12.0 | 0.00 | 0.03 | 0.01 | 41 | 1011.5 |
| 20260904185047 | 81 | 341 | 3.0 | 9.0 | 0.00 | 0.03 | 0.01 | 40 | 1011.6 |
| 20260904184526 | 81 | 338 | 2.0 | 8.0 | 0.00 | 0.03 | 0.01 | 48 | 1011.6 |
| 20260904184026 | 81 | 355 | 2.0 | 9.0 | 0.00 | 0.03 | 0.01 | 44 | 1011.7 |
| 20260904183526 | 80 | 353 | 2.0 | 10.0 | 0.00 | 0.03 | 0.01 | 44 | 1011.8 |
| 20260904183026 | 80 | 357 | 3.0 | 9.0 | 0.00 | 0.03 | 0.01 | 41 | 1011.9 |
| 20260904182526 | 80 | 359 | 3.0 | 8.0 | 0.00 | 0.03 | 0.01 | 42 | 1011.9 |
| 20260904182046 | 80 | 335 | 3.0 | 9.0 | 0.00 | 0.03 | 0.01 | 44 | 1011.9 |
| 20260904181526 | 80 | 342 | 2.0 | 5.0 | 0.00 | 0.03 | 0.01 | 48 | 1011.8 |
| 20260904181046 | 79 | 330 | 1.0 | 4.0 | 0.00 | 0.03 | 0.01 | 47 | 1011.7 |
| 20260904180526 | 79 | 348 | 2.0 | 6.0 | 0.00 | 0.03 | 0.01 | 46 | 1011.7 |
| 20260904180026 | 79 | 355 | 3.0 | 8.0 | 0.00 | 0.03 | 0.01 | 44 | 1011.9 |
| 20260904175526 | 80 | 352 | 2.0 | 8.0 | 0.00 | 0.03 | 0.01 | 45 | 1011.7 |
| 20260904175026 | 80 | 25 | 1.0 | 6.0 | 0.00 | 0.03 | 0.01 | 45 | 1011.7 |
| 20260904174526 | 80 | 8 | 4.0 | 8.0 | 0.00 | 0.03 | 0.01 | 44 | 1011.8 |
| 20260904174026 | 79 | 4 | 2.0 | 6.0 | 0.00 | 0.03 | 0.01 | 45 | 1011.7 |
| 20260904173526 | 80 | 357 | 3.0 | 6.0 | 0.00 | 0.03 | 0.01 | 40 | 1011.8 |
| 20260904173026 | 79 | 9 | 2.0 | 10.0 | 0.00 | 0.03 | 0.01 | 41 | 1011.8 |
| 20260904172546 | 79 | 8 | 2.0 | 8.0 | 0.00 | 0.03 | 0.01 | 40 | 1011.9 |
| 20260904172026 | 79 | 356 | 1.0 | 2.0 | 0.00 | 0.03 | 0.01 | 44 | 1012.0 |
| 20260904171546 | 79 | 8 | 1.0 | 3.0 | 0.00 | 0.03 | 0.01 | 42 | 1012.0 |
| 20260904171026 | 78 | 344 | 2.0 | 5.0 | 0.00 | 0.03 | 0.01 | 43 | 1012.1 |
| 20260904170526 | 78 | 334 | 1.0 | 3.0 | 0.00 | 0.03 | 0.01 | 45 | 1012.1 |
| 20260904170106 | 77 | 334 | 1.0 | 2.0 | 0.00 | 0.03 | 0.01 | 45 | 1012.2 |
| 20260904165526 | 78 | 0.0 | 4.0 | 0.00 | 0.03 | 0.01 | 44 | 1012.2 | |
| 20260904165026 | 78 | 358 | 2.0 | 6.0 | 0.00 | 0.03 | 0.01 | 42 | 1012.2 |
| 20260904164526 | 79 | 355 | 4.0 | 9.0 | 0.00 | 0.03 | 0.01 | 40 | 1012.3 |
| 20260904164026 | 79 | 357 | 2.0 | 6.0 | 0.00 | 0.03 | 0.01 | 29 | 1012.3 |
| 20260904163526 | 78 | 346 | 3.0 | 9.0 | 0.00 | 0.03 | 0.01 | 28 | 1012.2 |
| 20260904163026 | 78 | 14 | 2.0 | 8.0 | 0.00 | 0.03 | 0.01 | 29 | 1012.2 |
| 20260904162526 | 78 | 331 | 3.0 | 7.0 | 0.00 | 0.03 | 0.01 | 27 | 1012.3 |
| 20260904162026 | 78 | 2 | 3.0 | 11.0 | 0.00 | 0.03 | 0.01 | 28 | 1012.5 |
| 20260904161526 | 78 | 4 | 3.0 | 7.0 | 0.00 | 0.03 | 0.01 | 28 | 1012.5 |
| 20260904161026 | 78 | 1 | 3.0 | 6.0 | 0.00 | 0.03 | 0.01 | 29 | 1012.7 |
| 20260904160526 | 77 | 348 | 3.0 | 9.0 | 0.00 | 0.03 | 0.01 | 29 | 1012.7 |
| 20260904160026 | 77 | 3 | 5.0 | 11.0 | 0.00 | 0.03 | 0.01 | 26 | 1012.6 |
| 20260904155526 | 77 | 360 | 4.0 | 8.0 | 0.00 | 0.03 | 0.01 | 27 | 1012.6 |
| 20260904155026 | 77 | 346 | 4.0 | 9.0 | 0.00 | 0.03 | 0.01 | 27 | 1012.7 |
| 20260904154526 | 77 | 349 | 1.0 | 5.0 | 0.00 | 0.03 | 0.01 | 34 | 1012.8 |
| 20260904154026 | 76 | 348 | 3.0 | 10.0 | 0.00 | 0.03 | 0.01 | 32 | 1012.9 |
| 20260904153526 | 76 | 343 | 3.0 | 9.0 | 0.00 | 0.03 | 0.01 | 29 | 1012.9 |
| 20260904153026 | 76 | 351 | 5.0 | 11.0 | 0.00 | 0.03 | 0.01 | 28 | 1012.9 |
| 20260904152526 | 76 | 350 | 5.0 | 12.0 | 0.00 | 0.03 | 0.01 | 29 | 1012.9 |
| 20260904152026 | 76 | 344 | 4.0 | 9.0 | 0.00 | 0.03 | 0.01 | 29 | 1012.9 |
| 20260904151526 | 76 | 352 | 2.0 | 4.0 | 0.00 | 0.03 | 0.01 | 32 | 1012.9 |
| 20260904151026 | 75 | 356 | 3.0 | 10.0 | 0.00 | 0.03 | 0.01 | 32 | 1013.0 |
| 20260904150526 | 75 | 5 | 4.0 | 10.0 | 0.00 | 0.03 | 0.01 | 30 | 1013.0 |
| 20260904150026 | 74 | 349 | 4.0 | 10.0 | 0.00 | 0.03 | 0.01 | 31 | 1013.1 |
| 20260904145526 | 74 | 342 | 2.0 | 8.0 | 0.00 | 0.03 | 0.01 | 34 | 1013.0 |
| 20260904145026 | 74 | 357 | 3.0 | 9.0 | 0.00 | 0.03 | 0.01 | 33 | 1013.0 |
| 20260904144526 | 74 | 356 | 4.0 | 12.0 | 0.00 | 0.03 | 0.01 | 30 | 1013.0 |
| 20260904144026 | 74 | 352 | 2.0 | 5.0 | 0.00 | 0.03 | 0.01 | 35 | 1013.1 |
| 20260904143526 | 73 | 353 | 3.0 | 5.0 | 0.00 | 0.03 | 0.01 | 32 | 1013.1 |
| 20260904143026 | 73 | 8 | 2.0 | 8.0 | 0.00 | 0.03 | 0.01 | 35 | 1013.2 |
| 20260904142526 | 73 | 358 | 4.0 | 9.0 | 0.00 | 0.03 | 0.01 | 34 | 1013.1 |
| 20260904142026 | 72 | 17 | 3.0 | 8.0 | 0.00 | 0.03 | 0.01 | 34 | 1013.1 |
| 20260904141526 | 72 | 39 | 3.0 | 7.0 | 0.00 | 0.03 | 0.01 | 37 | 1013.1 |
| 20260904141046 | 72 | 356 | 3.0 | 8.0 | 0.00 | 0.03 | 0.01 | 39 | 1013.0 |
| 20260904140526 | 72 | 15 | 2.0 | 6.0 | 0.00 | 0.03 | 0.01 | 40 | 1013.1 |
| 20260904140026 | 72 | 43 | 1.0 | 3.0 | 0.00 | 0.03 | 0.01 | 42 | 1013.2 |
| 20260904135526 | 71 | 357 | 1.0 | 3.0 | 0.00 | 0.03 | 0.01 | 42 | 1013.1 |
| 20260904135026 | 71 | 357 | 1.0 | 3.0 | 0.00 | 0.03 | 0.01 | 43 | 1013.1 |
| 20260904134526 | 70 | 256 | 1.0 | 4.0 | 0.00 | 0.03 | 0.01 | 43 | 1013.1 |
| 20260904134046 | 70 | 7 | 2.0 | 5.0 | 0.00 | 0.03 | 0.01 | 44 | 1013.1 |
| 20260904133526 | 70 | 359 | 3.0 | 9.0 | 0.00 | 0.03 | 0.01 | 44 | 1013.0 |
| 20260904133026 | 69 | 345 | 1.0 | 5.0 | 0.00 | 0.03 | 0.01 | 45 | 1013.0 |
| 20260904132526 | 70 | 0.0 | 2.0 | 0.00 | 0.03 | 0.01 | 45 | 1012.9 | |
| 20260904132046 | 69 | 353 | 2.0 | 5.0 | 0.00 | 0.03 | 0.01 | 45 | 1012.8 |
| 20260904131526 | 70 | 323 | 1.0 | 3.0 | 0.00 | 0.03 | 0.01 | 45 | 1012.9 |
| 20260904131026 | 70 | 0.0 | 0.0 | 0.00 | 0.03 | 0.01 | 45 | 1013.0 | |
| 20260904130606 | 70 | 0.0 | 0.0 | 0.00 | 0.03 | 0.01 | 45 | 1013.1 | |
| 20260904130046 | 70 | 0.0 | 0.0 | 0.00 | 0.03 | 0.01 | 45 | 1012.9 | |
| 20260904125526 | 69 | 0.0 | 0.0 | 0.00 | 0.03 | 0.01 | 45 | 1012.9 | |
| 20260904125026 | 68 | 0.0 | 0.0 | 0.00 | 0.03 | 0.01 | 45 | 1012.9 | |
| 20260904124526 | 68 | 0.0 | 0.0 | 0.00 | 0.03 | 0.01 | 45 | 1012.8 | |
| 20260904124026 | 68 | 0.0 | 0.0 | 0.00 | 0.03 | 0.01 | 45 | 1012.9 | |
| 20260904123526 | 67 | 0.0 | 0.0 | 0.00 | 0.03 | 0.01 | 45 | 1012.9 | |
| 20260904123046 | 67 | 0.0 | 0.0 | 0.00 | 0.03 | 0.01 | 45 | 1012.9 | |
| 20260904122526 | 66 | 0.0 | 0.0 | 0.00 | 0.03 | 0.01 | 45 | 1013.0 | |
| 20260904122045 | 66 | 0.0 | 0.0 | 0.00 | 0.03 | 0.01 | 45 | 1012.9 | |
| 20260904121526 | 66 | 0.0 | 0.0 | 0.00 | 0.03 | 0.01 | 45 | 1012.9 | |
| 20260904121026 | 65 | 0.0 | 0.0 | 0.00 | 0.03 | 0.01 | 45 | 1013.0 | |
| 20260904120525 | 65 | 0.0 | 0.0 | 0.00 | 0.03 | 0.01 | 45 | 1012.8 | |
| 20260904120026 | 65 | 0.0 | 0.0 | 0.00 | 0.03 | 0.01 | 45 | 1012.8 | |
| 20260904115525 | 65 | 0.0 | 0.0 | 0.00 | 0.03 | 0.01 | 45 | 1012.8 | |
| 20260904115026 | 65 | 0.0 | 0.0 | 0.00 | 0.03 | 0.01 | 45 | 1012.8 | |
| 20260904114526 | 65 | 0.0 | 0.0 | 0.00 | 0.03 | 0.01 | 45 | 1012.8 | |
| 20260904114026 | 65 | 0.0 | 0.0 | 0.00 | 0.03 | 0.01 | 45 | 1012.7 | |
| 20260904113526 | 64 | 0.0 | 0.0 | 0.00 | 0.03 | 0.01 | 45 | 1012.7 | |
| 20260904113106 | 64 | 0.0 | 0.0 | 0.00 | 0.03 | 0.01 | 45 | 1012.6 | |
| 20260904112526 | 64 | 0.0 | 0.0 | 0.00 | 0.03 | 0.01 | 45 | 1012.5 | |
| 20260904112026 | 64 | 0.0 | 0.0 | 0.00 | 0.03 | 0.01 | 45 | 1012.5 | |
| 20260904111525 | 64 | 0.0 | 0.0 | 0.00 | 0.03 | 0.01 | 45 | 1012.4 | |
| 20260904111026 | 64 | 0.0 | 0.0 | 0.00 | 0.03 | 0.01 | 45 | 1012.3 | |
| 20260904110526 | 64 | 0.0 | 0.0 | 0.00 | 0.03 | 0.01 | 45 | 1012.4 | |
| 20260904110026 | 64 | 0.0 | 0.0 | 0.00 | 0.03 | 0.01 | 45 | 1012.5 | |
| 20260904105545 | 64 | 0.0 | 0.0 | 0.00 | 0.03 | 0.01 | 45 | 1012.6 | |
| 20260904105025 | 64 | 0.0 | 0.0 | 0.00 | 0.03 | 0.01 | 45 | 1012.5 | |
| 20260904104526 | 64 | 0.0 | 0.0 | 0.00 | 0.03 | 0.01 | 45 | 1012.4 | |
| 20260904104025 | 64 | 0.0 | 0.0 | 0.00 | 0.03 | 0.01 | 45 | 1012.5 | |
| 20260904103525 | 64 | 0.0 | 0.0 | 0.00 | 0.03 | 0.01 | 45 | 1012.5 | |
| 20260904103026 | 64 | 0.0 | 0.0 | 0.00 | 0.03 | 0.01 | 45 | 1012.6 | |
| 20260904102546 | 64 | 0.0 | 0.0 | 0.00 | 0.03 | 0.01 | 45 | 1012.6 | |
| 20260904102026 | 64 | 0.0 | 0.0 | 0.00 | 0.03 | 0.01 | 45 | 1012.4 | |
| 20260904101525 | 64 | 0.0 | 0.0 | 0.00 | 0.03 | 0.01 | 45 | 1012.5 | |
| 20260904101046 | 64 | 0.0 | 0.0 | 0.00 | 0.03 | 0.01 | 45 | 1012.5 | |
| 20260904100525 | 64 | 0.0 | 0.0 | 0.00 | 0.03 | 0.01 | 45 | 1012.4 | |
| 20260904100025 | 64 | 0.0 | 0.0 | 0.00 | 0.03 | 0.01 | 45 | 1012.3 | |
| 20260904095526 | 64 | 0.0 | 0.0 | 0.00 | 0.03 | 0.01 | 45 | 1012.4 | |
| 20260904095025 | 64 | 0.0 | 0.0 | 0.00 | 0.03 | 0.01 | 45 | 1012.4 | |
| 20260904094546 | 64 | 0.0 | 0.0 | 0.00 | 0.03 | 0.01 | 45 | 1012.4 | |
| 20260904094025 | 64 | 0.0 | 0.0 | 0.00 | 0.03 | 0.01 | 45 | 1012.3 | |
| 20260904093525 | 64 | 0.0 | 0.0 | 0.00 | 0.03 | 0.01 | 45 | 1012.4 | |
| 20260904093045 | 65 | 0.0 | 0.0 | 0.00 | 0.03 | 0.01 | 45 | 1012.3 | |
| 20260904092525 | 64 | 0.0 | 0.0 | 0.00 | 0.03 | 0.01 | 45 | 1012.4 | |
| 20260904092025 | 65 | 0.0 | 0.0 | 0.00 | 0.03 | 0.01 | 45 | 1012.3 | |
| 20260904091545 | 65 | 0.0 | 0.0 | 0.00 | 0.03 | 0.01 | 45 | 1012.3 | |
| 20260904091045 | 65 | 0.0 | 0.0 | 0.00 | 0.03 | 0.01 | 45 | 1012.3 | |
| 20260904090545 | 65 | 0.0 | 0.0 | 0.00 | 0.03 | 0.01 | 45 | 1012.3 | |
| 20260904090025 | 64 | 0.0 | 0.0 | 0.00 | 0.03 | 0.01 | 45 | 1012.2 | |
| 20260904085525 | 64 | 0.0 | 0.0 | 0.00 | 0.03 | 0.01 | 45 | 1012.2 | |
| 20260904085025 | 64 | 0.0 | 0.0 | 0.00 | 0.03 | 0.01 | 45 | 1012.1 | |
| 20260904084525 | 64 | 0.0 | 0.0 | 0.00 | 0.03 | 0.01 | 45 | 1012.1 | |
| 20260904084025 | 64 | 0.0 | 0.0 | 0.00 | 0.03 | 0.01 | 45 | 1012.1 | |
| 20260904083525 | 64 | 0.0 | 0.0 | 0.00 | 0.04 | 0.01 | 45 | 1012.1 | |
| 20260904083045 | 64 | 0.0 | 0.0 | 0.00 | 0.04 | 0.01 | 45 | 1012.1 | |
| 20260904082525 | 64 | 0.0 | 0.0 | 0.00 | 0.04 | 0.01 | 45 | 1012.2 | |
| 20260904082045 | 64 | 0.0 | 0.0 | 0.00 | 0.04 | 0.01 | 45 | 1012.2 | |
| 20260904081645 | 64 | 0.0 | 0.0 | 0.00 | 0.04 | 0.01 | 45 | 1012.2 | |
| 20260904081045 | 64 | 0.0 | 0.0 | 0.00 | 0.04 | 0.01 | 45 | 1012.1 | |
| 20260904080525 | 64 | 0.0 | 0.0 | 0.00 | 0.04 | 0.01 | 45 | 1012.0 | |
| 20260904080025 | 64 | 0.0 | 0.0 | 0.00 | 0.04 | 0.01 | 45 | 1012.1 | |
| 20260904075525 | 64 | 0.0 | 0.0 | 0.00 | 0.04 | 0.01 | 45 | 1012.1 | |
| 20260904075045 | 64 | 0.0 | 0.0 | 0.00 | 0.04 | 0.01 | 45 | 1012.0 | |
| 20260904074525 | 64 | 0.0 | 0.0 | 0.01 | 0.04 | 0.01 | 45 | 1012.2 | |
| 20260904074025 | 64 | 0.0 | 0.0 | 0.01 | 0.04 | 0.01 | 45 | 1012.2 | |
| 20260904073525 | 64 | 0.0 | 0.0 | 0.01 | 0.04 | 0.01 | 45 | 1012.5 | |
| 20260904073025 | 64 | 0.0 | 0.0 | 0.01 | 0.04 | 0.01 | 45 | 1012.6 | |
| 20260904072525 | 64 | 0.0 | 0.0 | 0.01 | 0.04 | 0.01 | 45 | 1012.7 | |
| 20260904072045 | 64 | 0.0 | 0.0 | 0.01 | 0.04 | 0.01 | 45 | 1012.8 | |
| 20260904071525 | 64 | 0.0 | 0.0 | 0.01 | 0.04 | 0.01 | 45 | 1013.0 | |
| 20260904071045 | 64 | 0.0 | 0.0 | 0.01 | 0.04 | 0.01 | 45 | 1013.1 | |
| 20260904070545 | 64 | 0.0 | 0.0 | 0.01 | 0.04 | 0.01 | 45 | 1013.0 | |
| 20260904070025 | 64 | 0.0 | 0.0 | 0.01 | 0.04 | 0.01 | 45 | 1012.8 | |
| 20260904065525 | 64 | 0.0 | 0.0 | 0.01 | 0.04 | 0.01 | 45 | 1012.7 | |
| 20260904065025 | 64 | 0.0 | 0.0 | 0.01 | 0.04 | 0.01 | 45 | 1012.8 | |
| 20260904064545 | 64 | 0.0 | 0.0 | 0.00 | 0.03 | 0.00 | 45 | 1012.9 | |
| 20260904064027 | 64 | 0.0 | 0.0 | 0.00 | 0.03 | 0.00 | 45 | 1012.9 | |
| 20260904063545 | 64 | 0.0 | 0.0 | 0.00 | 0.03 | 0.00 | 45 | 1013.1 | |
| 20260904063025 | 64 | 0.0 | 0.0 | 0.00 | 0.03 | 0.00 | 45 | 1012.9 | |
| 20260904062527 | 64 | 0.0 | 0.0 | 0.00 | 0.04 | 0.00 | 45 | 1012.8 | |
| 20260904062047 | 64 | 0.0 | 0.0 | 0.00 | 0.04 | 0.00 | 45 | 1012.9 | |
| 20260904061527 | 64 | 0.0 | 0.0 | 0.00 | 0.04 | 0.00 | 45 | 1012.9 | |
| 20260904061027 | 64 | 0.0 | 0.0 | 0.00 | 0.05 | 0.00 | 45 | 1013.2 | |
| 20260904060547 | 64 | 0.0 | 0.0 | 0.00 | 0.05 | 0.00 | 45 | 1013.0 | |
| 20260904060027 | 64 | 0.0 | 0.0 | 0.00 | 0.06 | 0.00 | 45 | 1013.1 | |
| 20260904055527 | 64 | 0.0 | 0.0 | 0.00 | 0.06 | 0.00 | 45 | 1013.1 | |
| 20260904055027 | 64 | 0.0 | 0.0 | 0.00 | 0.06 | 0.00 | 45 | 1013.2 | |
| 20260904054527 | 64 | 0.0 | 1.0 | 0.00 | 0.06 | 0.00 | 45 | 1013.3 | |
| 20260904054027 | 64 | 0.0 | 0.0 | 0.00 | 0.06 | 0.00 | 45 | 1013.3 | |
| 20260904053527 | 64 | 0.0 | 0.0 | 0.00 | 0.06 | 0.00 | 45 | 1013.3 | |
| 20260904053027 | 64 | 0.0 | 0.0 | 0.00 | 0.06 | 0.00 | 45 | 1013.3 | |
| 20260904052527 | 64 | 0.0 | 0.0 | 0.00 | 0.06 | 0.00 | 45 | 1013.4 | |
| 20260904052027 | 65 | 0.0 | 0.0 | 0.00 | 0.06 | 0.00 | 45 | 1013.4 | |
| 20260904051527 | 65 | 0.0 | 0.0 | 0.00 | 0.06 | 0.00 | 45 | 1013.5 | |
| 20260904051027 | 65 | 0.0 | 0.0 | 0.00 | 0.06 | 0.00 | 45 | 1013.6 | |
| 20260904050527 | 65 | 0.0 | 0.0 | 0.00 | 0.06 | 0.00 | 45 | 1013.6 | |
| 20260904050027 | 65 | 0.0 | 0.0 | 0.00 | 0.06 | 0.00 | 45 | 1013.7 | |
| 20260904045527 | 65 | 0.0 | 0.0 | 0.00 | 0.06 | 0.00 | 45 | 1013.6 | |
| 20260904045027 | 65 | 0.0 | 0.0 | 0.00 | 0.06 | 0.00 | 45 | 1013.6 | |
| 20260904044527 | 65 | 0.0 | 0.0 | 0.00 | 0.06 | 0.00 | 45 | 1013.6 | |
| 20260904044047 | 65 | 0.0 | 0.0 | 0.00 | 0.06 | 0.00 | 45 | 1013.6 | |
| 20260904043527 | 65 | 0.0 | 0.0 | 0.00 | 0.06 | 0.00 | 45 | 1013.8 | |
| 20260904043027 | 65 | 0.0 | 0.0 | 0.00 | 0.06 | 0.00 | 45 | 1013.7 | |
| 20260904042527 | 65 | 0.0 | 0.0 | 0.00 | 0.06 | 0.00 | 45 | 1013.7 | |
| 20260904042027 | 65 | 0.0 | 0.0 | 0.00 | 0.06 | 0.00 | 45 | 1013.6 | |
| 20260904041527 | 65 | 0.0 | 0.0 | 0.00 | 0.06 | 0.00 | 45 | 1013.7 | |
| 20260904041027 | 66 | 0.0 | 0.0 | 0.00 | 0.06 | 0.00 | 45 | 1013.8 | |
| 20260904040527 | 66 | 0.0 | 0.0 | 0.00 | 0.06 | 0.00 | 45 | 1013.7 | |
| 20260904040027 | 66 | 0.0 | 0.0 | 0.00 | 0.06 | 0.02 | 44 | 1013.8 | |
| 20260904035527 | 66 | 0.0 | 0.0 | 0.00 | 0.06 | 0.02 | 44 | 1013.9 | |
| 20260904035027 | 66 | 0.0 | 0.0 | 0.00 | 0.06 | 0.02 | 44 | 1014.1 | |
| 20260904034547 | 66 | 0.0 | 0.0 | 0.00 | 0.06 | 0.02 | 44 | 1014.0 | |
| 20260904034027 | 66 | 0.0 | 0.0 | 0.00 | 0.06 | 0.02 | 44 | 1014.1 | |
| 20260904033527 | 66 | 0.0 | 0.0 | 0.00 | 0.06 | 0.02 | 45 | 1014.2 | |
| 20260904033027 | 66 | 0.0 | 0.0 | 0.00 | 0.06 | 0.02 | 45 | 1014.2 | |
| 20260904032547 | 67 | 0.0 | 0.0 | 0.00 | 0.06 | 0.02 | 45 | 1014.1 | |
| 20260904032047 | 67 | 0.0 | 0.0 | 0.00 | 0.06 | 0.02 | 44 | 1014.1 | |
| 20260904031547 | 67 | 0.0 | 0.0 | 0.00 | 0.06 | 0.02 | 44 | 1014.0 | |
| 20260904031027 | 67 | 0.0 | 0.0 | 0.00 | 0.06 | 0.02 | 44 | 1014.1 | |
| 20260904030527 | 67 | 0.0 | 0.0 | 0.00 | 0.06 | 0.02 | 44 | 1014.2 | |
| 20260904030027 | 67 | 0.0 | 0.0 | 0.00 | 0.06 | 0.02 | 44 | 1014.0 |